Flag for Venezuela Weather past 2 weeks in San Cristóbal, Venezuela

Now
81 °F

Passing clouds.


Feels Like: 83 °F
Forecast: 64 / 88 °F
Wind: N/A

Location: San Antonio Del Tachira Airport

Current Time: Aug 30, 2015 at 1:40:22 AM

Latest Report: Aug 29, 2015 at 10:30 PM


Visibility: N/A

Pressure: 29.98 "Hg (27.08 "Hg at 893m altitude)

Humidity: 62%

Dew point: 66 °F

Location of San CristóbalLocation

Historic Weather in San Cristóbal — Graph

°F

San Cristóbal temperature yesterday

Maximum temperature yesterday: 97 °F (at 12:30 PM)
Minimum temperature yesterday: 81 °F (at 7:30 AM)
Average temperature yesterday: 88 °F

Past Weeks' High & Low Weather Summary

 TemperatureHumidityPressure
High99 °F (Aug 24, 3:30 PM)94% (Aug 17, 7:30 PM)30.01 "Hg (Aug 17, 7:30 PM)
Low75 °F (Aug 22, 6:30 AM)28% (Aug 23, 11:30 AM)29.80 "Hg (Aug 21, 4:30 PM)
Average86 °F56%29.91 "Hg
* Reported Aug 15 4:30 AM — Aug 29 10:30 PM, San Cristóbal, Weather by CustomWeather, © 2015

Note: Actual official high and low records may vary slightly from our data, if they occured in-between our weather recording intervals... More about our weather records

Advertising

San Cristóbal weather history for previous 24 hours

 ConditionsComfort  
Time TempWeatherWind HumidityBarometerVisibility
10:30 PM
Sat, Aug 29
81 °FPassing clouds.N/A62%29.98 "HgN/A
8:30 PM81 °FPassing clouds.N/A66%29.92 "HgN/A
6:30 PM84 °FPassing clouds.N/A58%29.86 "HgN/A
5:30 PM90 °FPassing clouds.N/A46%29.86 "HgN/A
4:30 PM93 °FPassing clouds.N/A39%29.86 "HgN/A
3:30 PM95 °FPassing clouds.N/A41%29.86 "HgN/A
2:30 PM95 °FScattered clouds.N/A41%29.86 "HgN/A
1:30 PM97 °FScattered clouds.N/A39%29.89 "HgN/A
12:30 PM97 °FScattered clouds.N/A39%29.92 "HgN/A
11:30 AM95 °FScattered clouds.N/A41%29.92 "HgN/A
10:30 AM91 °FPassing clouds.N/A46%29.95 "HgN/A
9:30 AM90 °FPassing clouds.N/A49%29.95 "HgN/A
8:30 AM82 °FPassing clouds.N/A62%29.89 "HgN/A
7:30 AM81 °FPassing clouds.N/A66%29.89 "HgN/A
6:30 AM82 °FPassing clouds.N/A58%29.89 "HgN/A
5:30 AM84 °FPassing clouds.N/A55%29.92 "HgN/A
1:30 AM82 °FPassing clouds.N/A62%29.89 "HgN/A
Weather by CustomWeather, © 2015

See weather overviewHow to use our weather pages